Regional Weather Roundup
Issued by NWS Newport/Morehead, NC

Current Version | Previous Version | Text Only | Print | Product List | Glossary On
Versions: 1 2 3 4 5 6 7 8 9 10 11 12 13 14 15 16 17 18 19 20 21 22 23 24 25 26 27 28 29 30 31 32 33 34 35 36 37 38 39 40 41 42 43 44 45 46 47 48 49 50
000 ASUS42 KMHX 082013 RWRMHX WEATHER ROUNDUP FOR EASTERN NORTH CAROLINA NATIONAL WEATHER SERVICE NEWPORT/MOREHEAD CITY NC 300 PM EST MON FEB 08 2016 NOTE: "FAIR" INDICATES FEW OR NO CLOUDS BELOW 12,000 FEET WITH NO SIGNIFICANT WEATHER AND/OR OBSTRUCTIONS TO VISIBILITY NCZ015>017-031-032-045>047-102-103-082100- NORTH COAST CITY SKY/WX TMP DP RH WIND PRES REMARKS EDENTON MOSUNNY 52 30 43 SW3 29.74R ELIZABETH CITY CLOUDY 47 36 65 SE10 29.73F KITTY HAWK CLEAR 48 34 58 NE5 29.74S MANTEO SUNNY 47 35 63 NE7 29.75F $$ NCZ045>047-081-094-103-104-082100- CENTRAL COAST CITY SKY/WX TMP DP RH WIND PRES REMARKS FRISCO MOSUNNY 48 35 60 VRB6 29.77S SWANQUARTER N/A 50 N/A N/A S8 29.74S $$ NCZ095-097-098-100-101-082100- SOUTHERN COAST CITY SKY/WX TMP DP RH WIND PRES REMARKS BEAUFORT SUNNY 50 34 54 SW13 29.76F CEDAR ISLAND N/A 54 N/A N/A S1 29.79S JACKSONVILLE SUNNY 53 32 44 S16G22 29.73F PINEY ISLAND CLEAR N/A N/A N/A S9 29.74F WILMINGTON SUNNY 55 37 50 S13 29.73F $$ NCZ011>013-027>030-043-044-078>080-089-090>093-098-082100- COASTAL PLAIN CITY SKY/WX TMP DP RH WIND PRES REMARKS AHOSKIE MOSUNNY 49 28 43 S3 29.71F CLINTON CLOUDY 56 33 42 SW8 29.69F ELIZABETHTOWN MOSUNNY 57 31 36 S10 29.70F GOLDSBORO MOSUNNY 54 30 40 S10 29.66F GREENVILLE MOSUNNY 54 30 40 SW12 29.74F HAVELOCK SUNNY 54 33 45 S14 29.75F KENANSVILLE N/A 55 28 36 CALM 29.71F KINSTON SUNNY 55 30 38 S10 29.70F NEW BERN SUNNY 56 30 37 SW8 29.73F RICHLANDS SUNNY 55 32 41 S10 29.72F ROCKY MOUNT MOSUNNY 53 31 42 S8 29.69F WASHINGTON MOSUNNY 53 31 42 CALM 29.72F WHITEVILLE MOSUNNY 57 32 38 S12 29.70F $$ AMZ130-135-150-152-154-156-158-170-250-252-270-ANZ085-086-088-633-658-670-082100- MARINE OBSERVATIONS STATION/POSITION TIME TEMP WIND PRES WAVE SWELL AIR SEA DIR/SP/G HT/PER HT/PER (UTC) (F) (DEG/KT/KT) (MB) (FT/S) (FT/S) CHESAPEAKE LIGHT 2000 42 60/ 4/ 5 1007.9 64 E VA BEACH 1950 45 53 330/ 10/ 12 1006.2 17/11 16/11 DUCK 1900 42 20/ 7/ 8 1006.9 2 E DUCK 1911 45 N/A 12/14 10/14 OREGON INLET 1900 44 45 20/ 7/ 9 1007.3 13E OREGON INLT 2000 47 N/A 19/17 16/17 HATTERAS CG 1900 45 50 270/ 8/ 9 1007.5 DIAMOND BUOY 1950 47 73 290/ 8/ 12 1008.1 13/16 13/16 CAPE LOOKOUT NOT AVBL BEAUFORT LAB 1900 49 45 200/ 9/ 11 1007.0 30 SE NEW RVR IN 1908 52 61 1007.5 30 SE NEW RVR IN 1925 61 N/A 6/13 5/13 27 SE WRIGHTSVLE 1908 54 60 230/ 12/ 19 1007.9 5 SE WRIGHTSVLE 1908 49 52 200/ 12/ 16 1008.3 225 S CAPE HAT 1950 61 69 270/ 19/ 25 N/A 15/14 13/14 41 SE CHARLESTON 1950 58 65 230/ 23/ 29 1007.8 7/12 3/12 $$

USA.gov is the U.S. government's official web portal to all federal, state and local government web resources and services.